Location: Unspecified
(35.6961°N, 0.0000°E)
Time: 23:35:36
(UTC+00:00)

S-56A Canister/Altair - Pass Details

Date: 01 June 2019
Orbit: 633 x 2499 km, 38.9° (Epoch: 16 June)

Event Time Altitude Azimuth Distance (km) Brightness Sun altitude
Rises 22:55:09 0° 254° (WSW) 2,911 - -30.3°
Reaches altitude 10° 22:57:19 10° 255° (WSW) 2,029 - -30.4°
Maximum altitude 23:01:49 85° 344° (NNW) 720 - -30.7°
Exits shadow 23:07:01 12° 73° (ENE) 2,351 10.0 -30.9°
Drops below altitude 10° 23:07:32 10° 73° (ENE) 2,554 10.2 -31.0°
Sets 23:10:33 0° 74° (ENE) 3,743 11.1 -31.1°
